Time,TemperatureF,DewpointF,PressureIn,WindDirection,WindDirectionDegrees,WindSpeedMPH,WindSpeedGustMPH,Humidity,HourlyPrecipIn,Conditions,Clouds,dailyrainin,SoftwareType,DateUTC
2013-03-09 00:00:00,25.9,20.6,30.29,NNE,22,0.0,0.0,80,0.00,CLR,,0.00,WeatherDisplay:10.37,2013-03-09 05:00:00,
2013-03-09 00:05:00,25.9,20.6,30.29,NNE,22,0.0,0.0,80,0.00,CLR,,0.00,WeatherDisplay:10.37,2013-03-09 05:05:00,
2013-03-09 00:10:00,25.9,20.6,30.29,NNE,22,0.0,0.0,80,0.00,CLR,,0.00,WeatherDisplay:10.37,2013-03-09 05:10:00,
2013-03-09 00:15:00,25.5,20.5,30.29,NNE,22,0.0,0.0,81,0.00,CLR,,0.00,WeatherDisplay:10.37,2013-03-09 05:15:00,
2013-03-09 00:20:00,25.3,20.3,30.30,NNE,22,0.0,0.0,81,0.00,CLR,,0.00,WeatherDisplay:10.37,2013-03-09 05:20:00,
2013-03-09 00:25:00,25.3,20.3,30.30,NNE,22,0.0,0.0,81,0.00,CLR,,0.00,WeatherDisplay:10.37,2013-03-09 05:25:00,
2013-03-09 00:30:00,25.2,20.1,30.29,NNE,22,0.0,0.0,81,0.00,CLR,,0.00,WeatherDisplay:10.37,2013-03-09 05:30:00,
2013-03-09 00:35:00,25.2,20.1,30.29,NNE,22,0.0,0.0,81,0.00,CLR,,0.00,WeatherDisplay:10.37,2013-03-09 05:35:00,
2013-03-09 00:40:00,25.2,20.4,30.29,NNE,22,0.0,0.0,82,0.00,CLR,,0.00,WeatherDisplay:10.37,2013-03-09 05:40:00,
2013-03-09 00:45:00,25.2,20.4,30.29,NNE,22,0.0,0.0,82,0.00,CLR,,0.00,WeatherDisplay:10.37,2013-03-09 05:45:00,
2013-03-09 00:50:00,25.0,20.3,30.28,NNE,22,0.0,0.0,82,0.00,CLR,,0.00,WeatherDisplay:10.37,2013-03-09 05:50:00,
2013-03-09 00:55:00,25.0,20.3,30.28,NNE,22,0.0,0.0,82,0.00,CLR,,0.00,WeatherDisplay:10.37,2013-03-09 05:55:00,
2013-03-09 01:00:00,24.6,19.9,30.28,NNE,22,0.0,0.0,82,0.00,CLR,,0.00,WeatherDisplay:10.37,2013-03-09 06:00:00,
2013-03-09 01:05:00,24.8,20.4,30.28,NNE,22,0.0,0.0,83,0.00,CLR,,0.00,WeatherDisplay:10.37,2013-03-09 06:05:00,
2013-03-09 01:10:00,24.8,20.4,30.27,NNE,22,0.0,0.0,83,0.00,CLR,,0.00,WeatherDisplay:10.37,2013-03-09 06:10:00,
2013-03-09 01:15:00,24.6,20.2,30.27,NNE,22,0.0,0.0,83,0.00,CLR,,0.00,WeatherDisplay:10.37,2013-03-09 06:15:00,
2013-03-09 01:20:00,24.6,20.2,30.27,NNE,22,0.0,0.0,83,0.00,CLR,,0.00,WeatherDisplay:10.37,2013-03-09 06:20:00,
2013-03-09 01:25:00,24.6,20.2,30.26,NNE,22,0.0,0.0,83,0.00,CLR,,0.00,WeatherDisplay:10.37,2013-03-09 06:25:00,
2013-03-09 01:30:00,24.4,20.0,30.26,NNE,22,0.0,0.0,83,0.00,CLR,,0.00,WeatherDisplay:10.37,2013-03-09 06:30:00,
2013-03-09 01:35:00,24.4,20.0,30.26,NNE,22,0.0,0.0,83,0.00,CLR,,0.00,WeatherDisplay:10.37,2013-03-09 06:35:00,
2013-03-09 01:40:00,24.4,20.0,30.26,NNE,22,0.0,0.0,83,0.00,CLR,,0.00,WeatherDisplay:10.37,2013-03-09 06:40:00,
2013-03-09 01:45:00,24.4,20.0,30.26,NNE,22,0.0,0.0,83,0.00,CLR,,0.00,WeatherDisplay:10.37,2013-03-09 06:45:00,
2013-03-09 01:50:00,24.4,20.0,30.25,NNE,22,0.0,0.0,83,0.00,CLR,,0.00,WeatherDisplay:10.37,2013-03-09 06:50:00,
2013-03-09 01:55:00,24.4,20.0,30.26,NNE,22,0.0,0.0,83,0.00,CLR,,0.00,WeatherDisplay:10.37,2013-03-09 06:55:00,
2013-03-09 02:00:00,24.1,19.7,30.26,NNE,22,0.0,0.0,83,0.00,CLR,,0.00,WeatherDisplay:10.37,2013-03-09 07:00:00,
2013-03-09 02:05:00,24.1,19.7,30.25,NNE,22,0.0,0.0,83,0.00,CLR,,0.00,WeatherDisplay:10.37,2013-03-09 07:05:00,
2013-03-09 02:10:00,24.1,19.7,30.25,NNE,22,0.0,0.0,83,0.00,CLR,,0.00,WeatherDisplay:10.37,2013-03-09 07:10:00,
2013-03-09 02:15:00,23.9,19.5,30.25,NNE,22,0.0,0.0,83,0.00,CLR,,0.00,WeatherDisplay:10.37,2013-03-09 07:15:00,
2013-03-09 02:20:00,23.7,19.6,30.25,NNE,22,0.0,0.0,84,0.00,CLR,,0.00,WeatherDisplay:10.37,2013-03-09 07:20:00,
2013-03-09 02:25:00,23.7,19.6,30.26,NNE,22,0.0,0.0,84,0.00,CLR,,0.00,WeatherDisplay:10.37,2013-03-09 07:25:00,
2013-03-09 02:31:00,23.5,19.4,30.26,NNE,22,0.0,0.0,84,0.00,CLR,,0.00,WeatherDisplay:10.37,2013-03-09 07:31:00,
2013-03-09 02:36:00,23.5,19.4,30.26,NNE,22,0.0,0.0,84,0.00,CLR,,0.00,WeatherDisplay:10.37,2013-03-09 07:36:00,
2013-03-09 02:41:00,23.5,19.4,30.26,NNE,22,0.0,0.0,84,0.00,CLR,,0.00,WeatherDisplay:10.37,2013-03-09 07:41:00,
2013-03-09 02:46:00,23.5,19.4,30.26,NNE,22,0.0,0.0,84,0.00,CLR,,0.00,WeatherDisplay:10.37,2013-03-09 07:46:00,
2013-03-09 02:51:00,23.5,19.4,30.26,NNE,22,0.0,0.0,84,0.00,CLR,,0.00,WeatherDisplay:10.37,2013-03-09 07:51:00,
2013-03-09 02:56:00,23.5,19.4,30.26,NNE,22,0.0,0.0,84,0.00,CLR,,0.00,WeatherDisplay:10.37,2013-03-09 07:56:00,
2013-03-09 03:01:00,23.5,19.4,30.26,NNE,22,0.0,0.0,84,0.00,CLR,,0.00,WeatherDisplay:10.37,2013-03-09 08:01:00,
2013-03-09 03:06:00,23.4,19.2,30.26,NNE,22,0.0,0.0,84,0.00,CLR,,0.00,WeatherDisplay:10.37,2013-03-09 08:06:00,
2013-03-09 03:11:00,23.4,19.2,30.26,NNE,22,0.0,0.0,84,0.00,CLR,,0.00,WeatherDisplay:10.37,2013-03-09 08:11:00,
2013-03-09 03:16:00,23.4,19.2,30.26,NNE,22,0.0,0.0,84,0.00,CLR,,0.00,WeatherDisplay:10.37,2013-03-09 08:16:00,
2013-03-09 03:21:00,23.4,19.2,30.26,NNE,22,0.0,0.0,84,0.00,CLR,,0.00,WeatherDisplay:10.37,2013-03-09 08:21:00,
2013-03-09 03:26:00,23.4,19.5,30.26,NNE,22,0.0,0.0,85,0.00,CLR,,0.00,WeatherDisplay:10.37,2013-03-09 08:26:00,
2013-03-09 03:31:00,23.4,19.5,30.25,NNE,22,0.0,0.0,85,0.00,CLR,,0.00,WeatherDisplay:10.37,2013-03-09 08:31:00,
2013-03-09 03:36:00,23.4,19.5,30.25,NNE,22,0.0,0.0,85,0.00,CLR,,0.00,WeatherDisplay:10.37,2013-03-09 08:36:00,
2013-03-09 03:41:00,23.4,19.5,30.25,NNE,22,0.0,0.0,85,0.00,CLR,,0.00,WeatherDisplay:10.37,2013-03-09 08:41:00,
2013-03-09 03:46:00,23.4,19.5,30.25,NNE,22,0.0,0.0,85,0.00,CLR,,0.00,WeatherDisplay:10.37,2013-03-09 08:46:00,
2013-03-09 03:51:00,23.2,19.3,30.25,NNE,22,0.0,0.0,85,0.00,CLR,,0.00,WeatherDisplay:10.37,2013-03-09 08:51:00,
2013-03-09 03:56:00,23.2,19.3,30.24,NNE,22,0.0,0.0,85,0.00,CLR,,0.00,WeatherDisplay:10.37,2013-03-09 08:56:00,
2013-03-09 04:01:00,23.0,19.2,30.24,NNE,22,0.0,0.0,85,0.00,CLR,,0.00,WeatherDisplay:10.37,2013-03-09 09:01:00,
2013-03-09 04:06:00,23.0,19.2,30.25,NNE,22,0.0,0.0,85,0.00,CLR,,0.00,WeatherDisplay:10.37,2013-03-09 09:06:00,
2013-03-09 04:11:00,22.8,19.0,30.25,NNE,22,0.0,0.0,85,0.00,CLR,,0.00,WeatherDisplay:10.37,2013-03-09 09:11:00,
2013-03-09 04:16:00,22.8,19.0,30.25,NNE,22,0.0,0.0,85,0.00,CLR,,0.00,WeatherDisplay:10.37,2013-03-09 09:16:00,
2013-03-09 04:21:00,22.8,19.0,30.24,NNE,22,0.0,0.0,85,0.00,CLR,,0.00,WeatherDisplay:10.37,2013-03-09 09:21:00,
2013-03-09 04:26:00,22.8,19.0,30.24,NNE,22,0.0,0.0,85,0.00,CLR,,0.00,WeatherDisplay:10.37,2013-03-09 09:26:00,
2013-03-09 04:31:00,22.6,18.8,30.24,NNE,22,0.0,0.0,85,0.00,CLR,,0.00,WeatherDisplay:10.37,2013-03-09 09:31:00,
2013-03-09 04:36:00,22.8,19.0,30.24,NNE,22,0.0,0.0,85,0.00,CLR,,0.00,WeatherDisplay:10.37,2013-03-09 09:36:00,
2013-03-09 04:41:00,22.8,19.0,30.24,NNE,22,0.0,0.0,85,0.00,CLR,,0.00,WeatherDisplay:10.37,2013-03-09 09:41:00,
2013-03-09 04:46:00,22.6,18.8,30.24,NNE,22,0.0,0.0,85,0.00,CLR,,0.00,WeatherDisplay:10.37,2013-03-09 09:46:00,
2013-03-09 04:51:00,22.6,18.8,30.24,NNE,22,0.0,0.0,85,0.00,CLR,,0.00,WeatherDisplay:10.37,2013-03-09 09:51:00,
2013-03-09 04:56:00,22.6,18.8,30.24,NNE,22,0.0,0.0,85,0.00,CLR,,0.00,WeatherDisplay:10.37,2013-03-09 09:56:00,
2013-03-09 05:01:00,22.6,18.8,30.24,NNE,22,0.0,0.0,85,0.00,CLR,,0.00,WeatherDisplay:10.37,2013-03-09 10:01:00,
2013-03-09 05:06:00,22.6,18.8,30.24,NNE,22,0.0,0.0,85,0.00,CLR,,0.00,WeatherDisplay:10.37,2013-03-09 10:06:00,
2013-03-09 05:11:00,22.6,18.8,30.24,NNE,22,0.0,0.0,85,0.00,CLR,,0.00,WeatherDisplay:10.37,2013-03-09 10:11:00,
2013-03-09 05:16:00,22.5,18.9,30.24,NNE,22,0.0,0.0,86,0.00,CLR,,0.00,WeatherDisplay:10.37,2013-03-09 10:16:00,
2013-03-09 05:21:00,22.5,18.9,30.24,NNE,22,0.0,0.0,86,0.00,CLR,,0.00,WeatherDisplay:10.37,2013-03-09 10:21:00,
2013-03-09 05:26:00,22.3,18.5,30.24,NNE,22,0.0,0.0,85,0.00,CLR,,0.00,WeatherDisplay:10.37,2013-03-09 10:26:00,
2013-03-09 05:31:00,22.3,18.7,30.24,NNE,22,0.0,0.0,86,0.00,CLR,,0.00,WeatherDisplay:10.37,2013-03-09 10:31:00,
2013-03-09 05:36:00,22.1,18.6,30.24,NNE,22,0.0,0.0,86,0.00,CLR,,0.00,WeatherDisplay:10.37,2013-03-09 10:36:00,
2013-03-09 05:41:00,22.1,18.6,30.24,NNE,22,0.0,0.0,86,0.00,CLR,,0.00,WeatherDisplay:10.37,2013-03-09 10:41:00,
2013-03-09 05:46:00,22.1,18.6,30.24,NNE,22,0.0,0.0,86,0.00,CLR,,0.00,WeatherDisplay:10.37,2013-03-09 10:46:00,
2013-03-09 05:51:00,22.1,18.6,30.24,NNE,22,0.0,0.0,86,0.00,CLR,,0.00,WeatherDisplay:10.37,2013-03-09 10:51:00,
2013-03-09 05:56:00,21.9,18.4,30.24,NNE,22,0.0,0.0,86,0.00,CLR,,0.00,WeatherDisplay:10.37,2013-03-09 10:56:00,
2013-03-09 06:01:00,21.9,18.4,30.25,NNE,22,0.0,0.0,86,0.00,CLR,,0.00,WeatherDisplay:10.37,2013-03-09 11:01:00,
2013-03-09 06:06:00,21.9,18.4,30.25,NNE,22,0.0,0.0,86,0.00,CLR,,0.00,WeatherDisplay:10.37,2013-03-09 11:06:00,
2013-03-09 06:11:00,21.9,18.4,30.25,NNE,22,0.0,0.0,86,0.00,CLR,,0.00,WeatherDisplay:10.37,2013-03-09 11:11:00,
2013-03-09 06:16:00,21.7,18.2,30.24,NNE,22,0.0,0.0,86,0.00,CLR,,0.00,WeatherDisplay:10.37,2013-03-09 11:16:00,
2013-03-09 06:21:00,21.7,18.2,30.24,NNE,22,0.0,0.0,86,0.00,CLR,,0.00,WeatherDisplay:10.37,2013-03-09 11:21:00,
2013-03-09 06:26:00,21.7,18.2,30.25,NNE,22,0.0,0.0,86,0.00,CLR,,0.00,WeatherDisplay:10.37,2013-03-09 11:26:00,
2013-03-09 06:31:00,21.7,18.2,30.25,NNE,22,0.0,0.0,86,0.00,CLR,,0.00,WeatherDisplay:10.37,2013-03-09 11:31:00,
2013-03-09 06:36:00,21.6,18.0,30.25,NNE,22,0.0,0.0,86,0.00,CLR,,0.00,WeatherDisplay:10.37,2013-03-09 11:36:00,
2013-03-09 06:41:00,21.6,18.0,30.25,NNE,22,0.0,0.0,86,0.00,CLR,,0.00,WeatherDisplay:10.37,2013-03-09 11:41:00,
2013-03-09 06:46:00,21.4,17.8,30.25,NNE,22,0.0,0.0,86,0.00,CLR,,0.00,WeatherDisplay:10.37,2013-03-09 11:46:00,
2013-03-09 06:51:00,21.4,17.8,30.25,NNE,22,0.0,0.0,86,0.00,CLR,,0.00,WeatherDisplay:10.37,2013-03-09 11:51:00,
2013-03-09 06:56:00,21.6,18.0,30.25,NNE,22,0.0,0.0,86,0.00,CLR,,0.00,WeatherDisplay:10.37,2013-03-09 11:56:00,
2013-03-09 07:01:00,21.6,18.0,30.25,NNE,22,0.0,0.0,86,0.00,CLR,,0.00,WeatherDisplay:10.37,2013-03-09 12:01:00,
2013-03-09 07:06:00,21.4,17.8,30.24,NNE,22,0.0,0.0,86,0.00,CLR,,0.00,WeatherDisplay:10.37,2013-03-09 12:06:00,
2013-03-09 07:11:00,21.6,18.0,30.25,NNE,22,0.0,0.0,86,0.00,CLR,,0.00,WeatherDisplay:10.37,2013-03-09 12:11:00,
2013-03-09 07:16:00,21.6,18.0,30.26,NNE,22,0.0,0.0,86,0.00,CLR,,0.00,WeatherDisplay:10.37,2013-03-09 12:16:00,
2013-03-09 07:21:00,21.6,18.0,30.26,NNE,22,0.0,0.0,86,0.00,CLR,,0.00,WeatherDisplay:10.37,2013-03-09 12:21:00,
2013-03-09 07:26:00,21.7,18.2,30.26,NNE,22,0.0,0.0,86,0.00,CLR,,0.00,WeatherDisplay:10.37,2013-03-09 12:26:00,
2013-03-09 07:31:00,21.9,18.4,30.26,NNE,22,0.0,0.0,86,0.00,CLR,,0.00,WeatherDisplay:10.37,2013-03-09 12:31:00,
2013-03-09 07:36:00,22.3,18.7,30.26,NNE,22,0.0,0.0,86,0.00,CLR,,0.00,WeatherDisplay:10.37,2013-03-09 12:36:00,
2013-03-09 07:41:00,22.6,19.1,30.26,NNE,22,0.0,0.0,86,0.00,CLR,,0.00,WeatherDisplay:10.37,2013-03-09 12:41:00,
2013-03-09 07:46:00,23.2,19.6,30.26,NNE,22,0.0,0.0,86,0.00,CLR,,0.00,WeatherDisplay:10.37,2013-03-09 12:46:00,
2013-03-09 07:51:00,23.7,20.1,30.26,NNE,22,0.0,0.0,86,0.00,CLR,,0.00,WeatherDisplay:10.37,2013-03-09 12:51:00,
2013-03-09 07:56:00,25.0,21.4,30.26,NNE,22,0.0,0.0,86,0.00,CLR,,0.00,WeatherDisplay:10.37,2013-03-09 12:56:00,
2013-03-09 08:01:00,27.5,23.9,30.26,NNE,22,0.0,0.0,86,0.00,CLR,,0.00,WeatherDisplay:10.37,2013-03-09 13:01:00,
2013-03-09 08:06:00,30.2,26.2,30.26,NNE,22,0.0,0.0,85,0.00,CLR,,0.00,WeatherDisplay:10.37,2013-03-09 13:06:00,
2013-03-09 08:11:00,31.6,27.6,30.27,NNE,22,0.0,0.0,85,0.00,CLR,,0.00,WeatherDisplay:10.37,2013-03-09 13:11:00,
2013-03-09 08:16:00,32.7,27.8,30.27,NNE,22,0.0,0.0,82,0.00,CLR,,0.00,WeatherDisplay:10.37,2013-03-09 13:16:00,
2013-03-09 08:21:00,32.9,27.7,30.27,NNE,22,0.0,0.0,81,0.00,CLR,,0.00,WeatherDisplay:10.37,2013-03-09 13:21:00,
2013-03-09 08:26:00,33.1,27.9,30.27,NNE,22,2.3,2.3,81,0.00,CLR,,0.00,WeatherDisplay:10.37,2013-03-09 13:26:00,
2013-03-09 08:31:00,32.7,27.8,30.27,NNE,22,1.1,1.1,82,0.00,CLR,,0.00,WeatherDisplay:10.37,2013-03-09 13:31:00,
2013-03-09 08:36:00,33.8,28.9,30.27,NNE,22,1.1,1.1,82,0.00,CLR,,0.00,WeatherDisplay:10.37,2013-03-09 13:36:00,
2013-03-09 08:41:00,37.9,32.6,30.27,NNE,22,1.7,0.0,81,0.00,CLR,,0.00,WeatherDisplay:10.37,2013-03-09 13:41:00,
2013-03-09 08:46:00,40.8,34.2,30.27,NNE,22,0.0,0.0,77,0.00,CLR,,0.00,WeatherDisplay:10.37,2013-03-09 13:46:00,
2013-03-09 08:51:00,42.6,34.9,30.27,NNE,22,1.1,1.1,74,0.00,CLR,,0.00,WeatherDisplay:10.37,2013-03-09 13:51:00,
2013-03-09 08:56:00,44.8,35.9,30.28,NNE,22,0.0,0.0,71,0.00,CLR,,0.00,WeatherDisplay:10.37,2013-03-09 13:56:00,
2013-03-09 09:01:00,44.8,34.9,30.27,NNE,22,0.0,0.0,68,0.00,CLR,,0.00,WeatherDisplay:10.37,2013-03-09 14:01:00,
2013-03-09 09:06:00,44.4,33.8,30.27,NNE,22,0.0,0.0,66,0.00,CLR,,0.00,WeatherDisplay:10.37,2013-03-09 14:06:00,
2013-03-09 09:11:00,41.5,31.8,30.27,NNE,22,4.6,4.8,68,0.00,CLR,,0.00,WeatherDisplay:10.37,2013-03-09 14:11:00,
2013-03-09 09:16:00,40.6,31.3,30.27,NNE,22,0.0,0.0,69,0.00,CLR,,0.00,WeatherDisplay:10.37,2013-03-09 14:16:00,
2013-03-09 09:21:00,40.8,31.1,30.27,NNE,22,0.0,0.0,68,0.00,CLR,,0.00,WeatherDisplay:10.37,2013-03-09 14:21:00,
2013-03-09 09:26:00,44.4,33.8,30.27,NNE,22,0.0,0.0,66,0.00,CLR,,0.00,WeatherDisplay:10.37,2013-03-09 14:26:00,
2013-03-09 09:31:00,45.7,34.2,30.27,NNE,22,1.1,1.1,64,0.00,CLR,,0.00,WeatherDisplay:10.37,2013-03-09 14:31:00,
2013-03-09 09:36:00,47.1,33.9,30.27,NNE,22,2.4,2.4,60,0.00,CLR,,0.00,WeatherDisplay:10.37,2013-03-09 14:36:00,
2013-03-09 09:41:00,48.4,33.4,30.26,NNE,22,5.8,5.8,56,0.00,CLR,,0.00,WeatherDisplay:10.37,2013-03-09 14:41:00,
2013-03-09 09:46:00,48.0,33.1,30.26,NNE,22,0.0,0.0,56,0.00,CLR,,0.00,WeatherDisplay:10.37,2013-03-09 14:46:00,
2013-03-09 09:51:00,48.0,33.5,30.26,NNE,22,0.0,0.0,57,0.00,CLR,,0.00,WeatherDisplay:10.37,2013-03-09 14:51:00,
2013-03-09 09:56:00,47.7,33.2,30.26,NNE,22,1.1,1.1,57,0.00,CLR,,0.00,WeatherDisplay:10.37,2013-03-09 14:56:00,
2013-03-09 10:01:00,47.1,32.2,30.26,NNE,22,3.5,3.5,56,0.00,CLR,,0.00,WeatherDisplay:10.37,2013-03-09 15:01:00,
2013-03-09 10:06:00,46.2,31.4,30.27,NNE,22,3.5,3.5,56,0.00,CLR,,0.00,WeatherDisplay:10.37,2013-03-09 15:06:00,
2013-03-09 10:11:00,46.9,32.0,30.27,NNE,22,4.6,4.6,56,0.00,CLR,,0.00,WeatherDisplay:10.37,2013-03-09 15:11:00,
2013-03-09 10:16:00,46.8,31.4,30.26,NNE,22,1.1,1.8,55,0.00,CLR,,0.00,WeatherDisplay:10.37,2013-03-09 15:16:00,
2013-03-09 10:21:00,47.1,31.8,30.26,NNE,22,0.0,0.0,55,0.00,CLR,,0.00,WeatherDisplay:10.37,2013-03-09 15:21:00,
2013-03-09 10:26:00,48.0,32.2,30.26,NNE,22,0.0,0.0,54,0.00,CLR,,0.00,WeatherDisplay:10.37,2013-03-09 15:26:00,
2013-03-09 10:31:00,50.7,33.7,30.26,NNE,22,0.0,0.0,52,0.00,CLR,,0.00,WeatherDisplay:10.37,2013-03-09 15:31:00,
2013-03-09 10:36:00,51.6,34.1,30.26,NNE,22,4.6,5.0,51,0.00,CLR,,0.00,WeatherDisplay:10.37,2013-03-09 15:36:00,
2013-03-09 10:41:00,51.3,33.7,30.26,NNE,22,0.0,0.0,51,0.00,CLR,,0.00,WeatherDisplay:10.37,2013-03-09 15:41:00,
2013-03-09 10:46:00,53.6,34.9,30.26,NNE,22,0.0,0.0,49,0.00,CLR,,0.00,WeatherDisplay:10.37,2013-03-09 15:46:00,
2013-03-09 10:51:00,54.9,33.9,30.26,NNE,22,8.1,0.0,45,0.00,CLR,,0.00,WeatherDisplay:10.37,2013-03-09 15:51:00,
2013-03-09 10:56:00,53.4,33.1,30.26,NNE,22,0.0,0.0,46,0.00,CLR,,0.00,WeatherDisplay:10.37,2013-03-09 15:56:00,
2013-03-09 11:01:00,53.4,34.2,30.26,NNE,22,3.5,3.9,48,0.00,CLR,,0.00,WeatherDisplay:10.37,2013-03-09 16:01:00,
2013-03-09 11:06:00,54.7,34.3,30.26,NNE,22,0.0,0.0,46,0.00,CLR,,0.00,WeatherDisplay:10.37,2013-03-09 16:06:00,
2013-03-09 11:11:00,55.2,34.8,30.26,NNE,22,3.5,3.5,46,0.00,CLR,,0.00,WeatherDisplay:10.37,2013-03-09 16:11:00,
2013-03-09 11:16:00,54.7,33.7,30.26,NNE,22,2.3,2.3,45,0.00,CLR,,0.00,WeatherDisplay:10.37,2013-03-09 16:16:00,
2013-03-09 11:21:00,53.8,33.5,30.25,NNE,22,4.6,4.9,46,0.00,CLR,,0.00,WeatherDisplay:10.37,2013-03-09 16:21:00,
2013-03-09 11:26:00,53.4,33.7,30.25,NNE,22,0.0,0.0,47,0.00,CLR,,0.00,WeatherDisplay:10.37,2013-03-09 16:26:00,
2013-03-09 11:31:00,55.6,34.0,30.26,NNE,22,0.0,0.0,44,0.00,CLR,,0.00,WeatherDisplay:10.37,2013-03-09 16:31:00,
2013-03-09 11:36:00,55.8,34.2,30.26,NNE,22,0.0,0.0,44,0.00,CLR,,0.00,WeatherDisplay:10.37,2013-03-09 16:36:00,
2013-03-09 11:41:00,55.6,34.6,30.26,NNE,22,3.5,3.5,45,0.00,CLR,,0.00,WeatherDisplay:10.37,2013-03-09 16:41:00,
2013-03-09 11:47:00,57.4,35.0,30.26,NNE,22,3.5,3.5,43,0.00,CLR,,0.00,WeatherDisplay:10.37,2013-03-09 16:47:00,
2013-03-09 11:52:00,57.7,36.0,30.26,NNE,22,5.8,5.8,44,0.00,CLR,,0.00,WeatherDisplay:10.37,2013-03-09 16:52:00,
2013-03-09 11:57:00,58.3,35.9,30.25,NNE,22,5.8,5.8,43,0.00,CLR,,0.00,WeatherDisplay:10.37,2013-03-09 16:57:00,
2013-03-09 12:02:00,58.8,36.4,30.25,NNE,22,0.0,0.0,43,0.00,CLR,,0.00,WeatherDisplay:10.37,2013-03-09 17:02:00,
2013-03-09 12:07:00,58.8,35.8,30.25,NNE,22,0.0,0.0,42,0.00,CLR,,0.00,WeatherDisplay:10.37,2013-03-09 17:07:00,
2013-03-09 12:12:00,59.9,36.1,30.24,NNE,22,3.6,3.6,41,0.00,CLR,,0.00,WeatherDisplay:10.37,2013-03-09 17:12:00,
2013-03-09 12:17:00,61.3,36.8,30.24,NNE,22,3.5,0.0,40,0.00,CLR,,0.00,WeatherDisplay:10.37,2013-03-09 17:17:00,
2013-03-09 12:22:00,63.5,38.7,30.24,NNE,22,4.6,4.6,40,0.00,CLR,,0.00,WeatherDisplay:10.37,2013-03-09 17:22:00,
2013-03-09 12:27:00,64.6,37.7,30.24,NNE,22,6.3,6.3,37,0.00,CLR,,0.00,WeatherDisplay:10.37,2013-03-09 17:27:00,
2013-03-09 12:32:00,64.9,38.0,30.24,NNE,22,3.5,0.0,37,0.00,CLR,,0.00,WeatherDisplay:10.37,2013-03-09 17:32:00,
2013-03-09 12:37:00,66.4,39.3,30.24,NNE,22,2.3,2.3,37,0.00,CLR,,0.00,WeatherDisplay:10.37,2013-03-09 17:37:00,
2013-03-09 12:42:00,66.9,36.9,30.24,NNE,22,0.0,0.0,33,0.00,CLR,,0.00,WeatherDisplay:10.37,2013-03-09 17:42:00,
2013-03-09 12:47:00,66.6,36.5,30.25,NNE,22,2.3,2.3,33,0.00,CLR,,0.00,WeatherDisplay:10.37,2013-03-09 17:47:00,
2013-03-09 12:52:00,65.8,35.9,30.25,NNE,22,2.3,2.3,33,0.00,CLR,,0.00,WeatherDisplay:10.37,2013-03-09 17:52:00,
2013-03-09 12:57:00,66.9,39.1,30.24,NNE,22,0.0,0.0,36,0.00,CLR,,0.00,WeatherDisplay:10.37,2013-03-09 17:57:00,
2013-03-09 13:02:00,68.5,38.3,30.24,NNE,22,1.1,1.1,33,0.00,CLR,,0.00,WeatherDisplay:10.37,2013-03-09 18:02:00,
2013-03-09 13:07:00,67.8,39.2,30.23,NNE,22,3.5,4.0,35,0.00,CLR,,0.00,WeatherDisplay:10.37,2013-03-09 18:07:00,
2013-03-09 13:12:00,68.7,39.2,30.23,NNE,22,3.5,3.5,34,0.00,CLR,,0.00,WeatherDisplay:10.37,2013-03-09 18:12:00,
2013-03-09 13:17:00,69.4,39.1,30.23,NNE,22,3.5,3.5,33,0.00,CLR,,0.00,WeatherDisplay:10.37,2013-03-09 18:17:00,
2013-03-09 13:22:00,69.1,38.8,30.23,NNE,22,4.6,4.6,33,0.00,CLR,,0.00,WeatherDisplay:10.37,2013-03-09 18:22:00,
2013-03-09 13:27:00,68.0,36.2,30.23,NNE,22,8.1,8.1,31,0.00,CLR,,0.00,WeatherDisplay:10.37,2013-03-09 18:27:00,
2013-03-09 13:32:00,66.7,35.1,30.22,NNE,22,0.0,0.0,31,0.00,CLR,,0.00,WeatherDisplay:10.37,2013-03-09 18:32:00,
2013-03-09 13:37:00,64.2,35.2,30.22,NNE,22,2.3,2.5,34,0.00,CLR,,0.00,WeatherDisplay:10.37,2013-03-09 18:37:00,
2013-03-09 13:42:00,63.9,34.9,30.21,NNE,22,8.1,8.1,34,0.00,CLR,,0.00,WeatherDisplay:10.37,2013-03-09 18:42:00,
2013-03-09 13:47:00,62.4,33.7,30.21,NNE,22,3.5,3.5,34,0.00,CLR,,0.00,WeatherDisplay:10.37,2013-03-09 18:47:00,
2013-03-09 13:52:00,63.1,34.3,30.21,NNE,22,4.6,4.6,34,0.00,CLR,,0.00,WeatherDisplay:10.37,2013-03-09 18:52:00,
2013-03-09 13:57:00,63.5,34.6,30.21,NNE,22,4.6,4.6,34,0.00,CLR,,0.00,WeatherDisplay:10.37,2013-03-09 18:57:00,
2013-03-09 14:02:00,64.9,35.1,30.21,NNE,22,0.0,0.0,33,0.00,CLR,,0.00,WeatherDisplay:10.37,2013-03-09 19:02:00,
2013-03-09 14:07:00,65.5,34.8,30.20,NNE,22,1.1,1.6,32,0.00,CLR,,0.00,WeatherDisplay:10.37,2013-03-09 19:07:00,
2013-03-09 14:12:00,66.0,35.3,30.20,NNE,22,1.1,1.1,32,0.00,CLR,,0.00,WeatherDisplay:10.37,2013-03-09 19:12:00,
2013-03-09 14:17:00,66.2,35.4,30.20,NNE,22,5.8,5.8,32,0.00,CLR,,0.00,WeatherDisplay:10.37,2013-03-09 19:17:00,
2013-03-09 14:22:00,65.7,35.0,30.20,NNE,22,3.5,3.5,32,0.00,CLR,,0.00,WeatherDisplay:10.37,2013-03-09 19:22:00,
2013-03-09 14:27:00,64.2,34.5,30.20,NNE,22,1.1,1.1,33,0.00,CLR,,0.00,WeatherDisplay:10.37,2013-03-09 19:27:00,
2013-03-09 14:32:00,62.4,32.9,30.20,NNE,22,0.0,0.0,33,0.00,CLR,,0.00,WeatherDisplay:10.37,2013-03-09 19:32:00,
2013-03-09 14:37:00,61.5,32.9,30.20,NNE,22,4.6,4.6,34,0.00,CLR,,0.00,WeatherDisplay:10.37,2013-03-09 19:37:00,
2013-03-09 14:42:00,61.5,33.6,30.20,NNE,22,3.9,3.9,35,0.00,CLR,,0.00,WeatherDisplay:10.37,2013-03-09 19:42:00,
2013-03-09 14:47:00,61.3,32.7,30.19,NNE,22,1.7,1.8,34,0.00,CLR,,0.00,WeatherDisplay:10.37,2013-03-09 19:47:00,
2013-03-09 14:52:00,60.6,32.8,30.19,NNE,22,2.3,2.3,35,0.00,CLR,,0.00,WeatherDisplay:10.37,2013-03-09 19:52:00,
2013-03-09 14:57:00,60.4,32.6,30.19,NNE,22,4.6,4.6,35,0.00,CLR,,0.00,WeatherDisplay:10.37,2013-03-09 19:57:00,
2013-03-09 15:02:00,60.6,32.8,30.19,NNE,22,0.0,0.0,35,0.00,CLR,,0.00,WeatherDisplay:10.37,2013-03-09 20:02:00,
2013-03-09 15:07:00,65.7,37.2,30.19,NNE,22,0.0,0.0,35,0.00,CLR,,0.00,WeatherDisplay:10.37,2013-03-09 20:07:00,
2013-03-09 15:12:00,69.4,37.5,30.19,NNE,22,1.1,1.1,31,0.00,CLR,,0.00,WeatherDisplay:10.37,2013-03-09 20:12:00,
2013-03-09 15:17:00,70.9,37.0,30.19,NNE,22,0.0,0.0,29,0.00,CLR,,0.00,WeatherDisplay:10.37,2013-03-09 20:17:00,
2013-03-09 15:22:00,71.2,37.3,30.19,NNE,22,5.8,0.0,29,0.00,CLR,,0.00,WeatherDisplay:10.37,2013-03-09 20:22:00,
2013-03-09 15:27:00,70.0,35.4,30.19,NNE,22,2.3,2.5,28,0.00,CLR,,0.00,WeatherDisplay:10.37,2013-03-09 20:27:00,
2013-03-09 15:32:00,68.2,33.8,30.19,NNE,22,4.6,4.6,28,0.00,CLR,,0.00,WeatherDisplay:10.37,2013-03-09 20:32:00,
2013-03-09 15:37:00,67.6,33.3,30.18,NNE,22,2.3,2.5,28,0.00,CLR,,0.00,WeatherDisplay:10.37,2013-03-09 20:37:00,
2013-03-09 15:42:00,67.3,33.9,30.19,NNE,22,4.6,4.6,29,0.00,CLR,,0.00,WeatherDisplay:10.37,2013-03-09 20:42:00,
2013-03-09 15:47:00,67.8,33.5,30.19,NNE,22,5.8,6.0,28,0.00,CLR,,0.00,WeatherDisplay:10.37,2013-03-09 20:47:00,
2013-03-09 15:52:00,67.3,33.9,30.19,NNE,22,4.6,4.6,29,0.00,CLR,,0.00,WeatherDisplay:10.37,2013-03-09 20:52:00,
2013-03-09 15:57:00,67.1,35.4,30.19,NNE,22,0.0,0.0,31,0.00,CLR,,0.00,WeatherDisplay:10.37,2013-03-09 20:57:00,
2013-03-09 16:02:00,66.7,33.4,30.19,NNE,22,2.3,2.3,29,0.00,CLR,,0.00,WeatherDisplay:10.37,2013-03-09 21:02:00,
2013-03-09 16:07:00,66.9,34.5,30.19,NNE,22,3.5,4.0,30,0.00,CLR,,0.00,WeatherDisplay:10.37,2013-03-09 21:07:00,
2013-03-09 16:12:00,67.1,34.6,30.19,NNE,22,2.3,2.3,30,0.00,CLR,,0.00,WeatherDisplay:10.37,2013-03-09 21:12:00,
2013-03-09 16:17:00,67.1,34.6,30.18,NNE,22,0.0,0.0,30,0.00,CLR,,0.00,WeatherDisplay:10.37,2013-03-09 21:17:00,
2013-03-09 16:22:00,67.6,35.1,30.18,NNE,22,2.3,2.3,30,0.00,CLR,,0.00,WeatherDisplay:10.37,2013-03-09 21:22:00,
2013-03-09 16:27:00,68.4,35.7,30.18,NNE,22,3.5,3.8,30,0.00,CLR,,0.00,WeatherDisplay:10.37,2013-03-09 21:27:00,
2013-03-09 16:32:00,67.6,34.2,30.18,NNE,22,0.0,0.4,29,0.00,CLR,,0.00,WeatherDisplay:10.37,2013-03-09 21:32:00,
2013-03-09 16:37:00,66.9,35.3,30.18,NNE,22,3.5,3.5,31,0.00,CLR,,0.00,WeatherDisplay:10.37,2013-03-09 21:37:00,
2013-03-09 16:42:00,66.7,35.1,30.18,NNE,22,3.5,3.5,31,0.00,CLR,,0.00,WeatherDisplay:10.37,2013-03-09 21:42:00,
2013-03-09 16:47:00,66.9,35.3,30.18,NNE,22,8.1,8.1,31,0.00,CLR,,0.00,WeatherDisplay:10.37,2013-03-09 21:47:00,
2013-03-09 16:52:00,67.3,35.6,30.18,NNE,22,2.3,2.3,31,0.00,CLR,,0.00,WeatherDisplay:10.37,2013-03-09 21:52:00,
2013-03-09 16:57:00,66.9,35.3,30.18,NNE,22,0.0,0.0,31,0.00,CLR,,0.00,WeatherDisplay:10.37,2013-03-09 21:57:00,
2013-03-09 17:02:00,66.0,35.3,30.18,NNE,22,2.9,2.9,32,0.00,CLR,,0.00,WeatherDisplay:10.37,2013-03-09 22:02:00,
2013-03-09 17:07:00,66.0,34.5,30.18,NNE,22,3.5,3.5,31,0.00,CLR,,0.00,WeatherDisplay:10.37,2013-03-09 22:07:00,
2013-03-09 17:12:00,66.7,35.1,30.17,NNE,22,0.0,0.0,31,0.00,CLR,,0.00,WeatherDisplay:10.37,2013-03-09 22:12:00,
2013-03-09 17:17:00,66.7,35.1,30.17,NNE,22,1.1,1.8,31,0.00,CLR,,0.00,WeatherDisplay:10.37,2013-03-09 22:17:00,
2013-03-09 17:22:00,65.8,35.1,30.17,NNE,22,1.1,1.1,32,0.00,CLR,,0.00,WeatherDisplay:10.37,2013-03-09 22:22:00,
2013-03-09 17:27:00,65.5,34.8,30.17,NNE,22,2.3,2.3,32,0.00,CLR,,0.00,WeatherDisplay:10.37,2013-03-09 22:27:00,
2013-03-09 17:32:00,65.1,34.5,30.17,NNE,22,0.0,0.0,32,0.00,CLR,,0.00,WeatherDisplay:10.37,2013-03-09 22:32:00,
2013-03-09 17:37:00,64.2,34.5,30.17,NNE,22,4.6,4.6,33,0.00,CLR,,0.00,WeatherDisplay:10.37,2013-03-09 22:37:00,
2013-03-09 17:42:00,63.1,34.3,30.18,NNE,22,0.0,0.0,34,0.00,CLR,,0.00,WeatherDisplay:10.37,2013-03-09 22:42:00,
2013-03-09 17:47:00,62.2,34.2,30.18,NNE,22,0.0,0.0,35,0.00,CLR,,0.00,WeatherDisplay:10.37,2013-03-09 22:47:00,
2013-03-09 17:52:00,61.9,33.9,30.18,NNE,22,1.1,1.1,35,0.00,CLR,,0.00,WeatherDisplay:10.37,2013-03-09 22:52:00,
2013-03-09 17:57:00,61.7,33.7,30.18,NNE,22,3.5,0.0,35,0.00,CLR,,0.00,WeatherDisplay:10.37,2013-03-09 22:57:00,
2013-03-09 18:02:00,61.5,34.3,30.17,NNE,22,0.0,0.0,36,0.00,CLR,,0.00,WeatherDisplay:10.37,2013-03-09 23:02:00,
2013-03-09 18:07:00,61.3,34.1,30.17,NNE,22,0.0,0.0,36,0.00,CLR,,0.00,WeatherDisplay:10.37,2013-03-09 23:07:00,
2013-03-09 18:12:00,60.4,32.6,30.17,NNE,22,1.1,1.6,35,0.00,CLR,,0.00,WeatherDisplay:10.37,2013-03-09 23:12:00,
2013-03-09 18:17:00,58.6,31.7,30.17,NNE,22,0.0,0.0,36,0.00,CLR,,0.00,WeatherDisplay:10.37,2013-03-09 23:17:00,
2013-03-09 18:22:00,57.4,31.3,30.17,NNE,22,0.0,0.0,37,0.00,CLR,,0.00,WeatherDisplay:10.37,2013-03-09 23:22:00,
2013-03-09 18:27:00,56.1,30.2,30.18,NNE,22,0.0,0.0,37,0.00,CLR,,0.00,WeatherDisplay:10.37,2013-03-09 23:27:00,
2013-03-09 18:32:00,54.7,29.5,30.17,NNE,22,0.0,0.0,38,0.00,CLR,,0.00,WeatherDisplay:10.37,2013-03-09 23:32:00,
2013-03-09 18:37:00,54.1,29.7,30.17,NNE,22,0.0,0.0,39,0.00,CLR,,0.00,WeatherDisplay:10.37,2013-03-09 23:37:00,
2013-03-09 18:42:00,53.2,29.5,30.17,NNE,22,0.0,0.0,40,0.00,CLR,,0.00,WeatherDisplay:10.37,2013-03-09 23:42:00,
2013-03-09 18:47:00,52.2,28.5,30.17,NNE,22,0.0,0.0,40,0.00,CLR,,0.00,WeatherDisplay:10.37,2013-03-09 23:47:00,
2013-03-09 18:52:00,51.6,29.3,30.17,NNE,22,0.0,0.0,42,0.00,CLR,,0.00,WeatherDisplay:10.37,2013-03-09 23:52:00,
2013-03-09 18:57:00,50.9,28.6,30.17,NNE,22,0.0,0.0,42,0.00,CLR,,0.00,WeatherDisplay:10.37,2013-03-09 23:57:00,
2013-03-09 19:02:00,50.2,28.5,30.17,NNE,22,0.0,0.0,43,0.00,CLR,,0.00,WeatherDisplay:10.37,2013-03-10 00:02:00,
2013-03-09 19:07:00,49.8,29.3,30.17,NNE,22,0.0,0.0,45,0.00,CLR,,0.00,WeatherDisplay:10.37,2013-03-10 00:07:00,
2013-03-09 19:12:00,49.1,28.7,30.17,NNE,22,0.0,0.0,45,0.00,CLR,,0.00,WeatherDisplay:10.37,2013-03-10 00:12:00,
2013-03-09 19:17:00,48.4,28.5,30.17,NNE,22,0.0,0.0,46,0.00,CLR,,0.00,WeatherDisplay:10.37,2013-03-10 00:17:00,
2013-03-09 19:22:00,47.8,28.0,30.17,NNE,22,0.0,0.0,46,0.00,CLR,,0.00,WeatherDisplay:10.37,2013-03-10 00:22:00,
2013-03-09 19:27:00,47.5,28.2,30.17,NNE,22,0.0,0.0,47,0.00,CLR,,0.00,WeatherDisplay:10.37,2013-03-10 00:27:00,
2013-03-09 19:32:00,46.9,28.3,30.17,NNE,22,0.0,0.0,48,0.00,CLR,,0.00,WeatherDisplay:10.37,2013-03-10 00:32:00,
2013-03-09 19:37:00,46.2,28.1,30.17,NNE,22,0.0,0.0,49,0.00,CLR,,0.00,WeatherDisplay:10.37,2013-03-10 00:37:00,
2013-03-09 19:42:00,46.0,27.9,30.17,NNE,22,0.0,0.0,49,0.00,CLR,,0.00,WeatherDisplay:10.37,2013-03-10 00:42:00,
2013-03-09 19:47:00,45.5,27.4,30.17,NNE,22,0.0,0.0,49,0.00,CLR,,0.00,WeatherDisplay:10.37,2013-03-10 00:47:00,
2013-03-09 19:52:00,45.1,27.6,30.17,NNE,22,0.0,0.0,50,0.00,CLR,,0.00,WeatherDisplay:10.37,2013-03-10 00:52:00,
2013-03-09 19:57:00,45.0,27.4,30.16,NNE,22,0.0,0.0,50,0.00,CLR,,0.00,WeatherDisplay:10.37,2013-03-10 00:57:00,
2013-03-09 20:02:00,44.8,27.3,30.17,NNE,22,0.0,0.0,50,0.00,CLR,,0.00,WeatherDisplay:10.37,2013-03-10 01:02:00,
2013-03-09 20:07:00,44.6,27.1,30.16,NNE,22,0.0,0.0,50,0.00,CLR,,0.00,WeatherDisplay:10.37,2013-03-10 01:07:00,
2013-03-09 20:12:00,44.4,26.9,30.17,NNE,22,0.0,0.0,50,0.00,CLR,,0.00,WeatherDisplay:10.37,2013-03-10 01:12:00,
2013-03-09 20:17:00,44.2,26.8,30.17,NNE,22,0.0,0.0,50,0.00,CLR,,0.00,WeatherDisplay:10.37,2013-03-10 01:17:00,
2013-03-09 20:22:00,44.1,26.6,30.17,NNE,22,0.0,0.0,50,0.00,CLR,,0.00,WeatherDisplay:10.37,2013-03-10 01:22:00,
2013-03-09 20:27:00,43.9,26.4,30.17,NNE,22,0.0,0.0,50,0.00,CLR,,0.00,WeatherDisplay:10.37,2013-03-10 01:27:00,
2013-03-09 20:32:00,43.9,26.4,30.17,NNE,22,0.0,0.0,50,0.00,CLR,,0.00,WeatherDisplay:10.37,2013-03-10 01:32:00,
2013-03-09 20:37:00,43.9,26.4,30.18,NNE,22,0.0,0.0,50,0.00,CLR,,0.00,WeatherDisplay:10.37,2013-03-10 01:37:00,
2013-03-09 20:42:00,43.9,26.4,30.18,NNE,22,0.0,0.0,50,0.00,CLR,,0.00,WeatherDisplay:10.37,2013-03-10 01:42:00,
2013-03-09 20:47:00,44.2,26.8,30.18,NNE,22,0.0,0.0,50,0.00,CLR,,0.00,WeatherDisplay:10.37,2013-03-10 01:47:00,
2013-03-09 20:52:00,44.2,26.8,30.17,NNE,22,0.0,0.0,50,0.00,CLR,,0.00,WeatherDisplay:10.37,2013-03-10 01:52:00,
2013-03-09 20:58:00,44.4,26.9,30.17,NNE,22,0.0,0.0,50,0.00,CLR,,0.00,WeatherDisplay:10.37,2013-03-10 01:58:00,
2013-03-09 21:03:00,44.4,26.9,30.18,NNE,22,0.0,0.0,50,0.00,CLR,,0.00,WeatherDisplay:10.37,2013-03-10 02:03:00,
2013-03-09 21:08:00,44.4,26.4,30.17,NNE,22,0.0,0.0,49,0.00,CLR,,0.00,WeatherDisplay:10.37,2013-03-10 02:08:00,
2013-03-09 21:13:00,45.0,26.9,30.17,NNE,22,3.5,3.7,49,0.00,CLR,,0.00,WeatherDisplay:10.37,2013-03-10 02:13:00,
2013-03-09 21:18:00,45.1,27.1,30.17,NNE,22,0.0,0.0,49,0.00,CLR,,0.00,WeatherDisplay:10.37,2013-03-10 02:18:00,
2013-03-09 21:23:00,45.5,27.4,30.17,NNE,22,1.1,1.1,49,0.00,CLR,,0.00,WeatherDisplay:10.37,2013-03-10 02:23:00,
2013-03-09 21:28:00,45.7,27.6,30.17,NNE,22,3.1,3.1,49,0.00,CLR,,0.00,WeatherDisplay:10.37,2013-03-10 02:28:00,
2013-03-09 21:33:00,46.0,27.9,30.18,NNE,22,0.0,0.0,49,0.00,CLR,,0.00,WeatherDisplay:10.37,2013-03-10 02:33:00,
2013-03-09 21:38:00,46.0,27.9,30.18,NNE,22,2.3,2.3,49,0.00,CLR,,0.00,WeatherDisplay:10.37,2013-03-10 02:38:00,
2013-03-09 21:43:00,46.2,28.1,30.18,NNE,22,0.0,0.0,49,0.00,CLR,,0.00,WeatherDisplay:10.37,2013-03-10 02:43:00,
2013-03-09 21:48:00,46.2,28.6,30.18,NNE,22,4.6,4.6,50,0.00,CLR,,0.00,WeatherDisplay:10.37,2013-03-10 02:48:00,
2013-03-09 21:53:00,46.2,28.6,30.18,NNE,22,0.0,0.0,50,0.00,CLR,,0.00,WeatherDisplay:10.37,2013-03-10 02:53:00,
2013-03-09 21:58:00,46.4,28.8,30.18,NNE,22,0.0,0.0,50,0.00,CLR,,0.00,WeatherDisplay:10.37,2013-03-10 02:58:00,
2013-03-09 22:03:00,46.6,28.9,30.18,NNE,22,0.0,0.0,50,0.00,CLR,,0.00,WeatherDisplay:10.37,2013-03-10 03:03:00,
2013-03-09 22:08:00,46.6,28.9,30.18,NNE,22,0.0,1.4,50,0.00,CLR,,0.00,WeatherDisplay:10.37,2013-03-10 03:08:00,
2013-03-09 22:13:00,46.6,28.9,30.19,NNE,22,2.4,2.4,50,0.00,CLR,,0.00,WeatherDisplay:10.37,2013-03-10 03:13:00,
2013-03-09 22:18:00,46.6,28.9,30.19,NNE,22,3.5,3.5,50,0.00,CLR,,0.00,WeatherDisplay:10.37,2013-03-10 03:18:00,
2013-03-09 22:23:00,46.6,28.9,30.19,NNE,22,1.2,1.2,50,0.00,CLR,,0.00,WeatherDisplay:10.37,2013-03-10 03:23:00,
2013-03-09 22:28:00,46.6,28.9,30.19,NNE,22,0.0,0.0,50,0.00,CLR,,0.00,WeatherDisplay:10.37,2013-03-10 03:28:00,
2013-03-09 22:33:00,46.2,28.6,30.18,NNE,22,1.7,1.7,50,0.00,CLR,,0.00,WeatherDisplay:10.37,2013-03-10 03:33:00,
2013-03-09 22:38:00,46.2,28.6,30.18,NNE,22,0.0,0.0,50,0.00,CLR,,0.00,WeatherDisplay:10.37,2013-03-10 03:38:00,
2013-03-09 22:43:00,46.0,28.4,30.18,NNE,22,3.5,3.5,50,0.00,CLR,,0.00,WeatherDisplay:10.37,2013-03-10 03:43:00,
2013-03-09 22:48:00,46.0,28.9,30.18,NNE,22,0.0,0.0,51,0.00,CLR,,0.00,WeatherDisplay:10.37,2013-03-10 03:48:00,
2013-03-09 22:53:00,46.0,28.9,30.18,NNE,22,0.0,0.0,51,0.00,CLR,,0.00,WeatherDisplay:10.37,2013-03-10 03:53:00,
2013-03-09 22:58:00,45.9,28.3,30.18,NNE,22,1.1,1.1,50,0.00,CLR,,0.00,WeatherDisplay:10.37,2013-03-10 03:58:00,
2013-03-09 23:03:00,45.7,28.6,30.18,NNE,22,0.0,0.0,51,0.00,CLR,,0.00,WeatherDisplay:10.37,2013-03-10 04:03:00,
2013-03-09 23:08:00,45.7,28.6,30.18,NNE,22,1.9,1.9,51,0.00,CLR,,0.00,WeatherDisplay:10.37,2013-03-10 04:08:00,
2013-03-09 23:13:00,45.7,28.6,30.18,NNE,22,0.0,0.0,51,0.00,CLR,,0.00,WeatherDisplay:10.37,2013-03-10 04:13:00,
2013-03-09 23:18:00,45.7,28.6,30.18,NNE,22,0.0,0.0,51,0.00,CLR,,0.00,WeatherDisplay:10.37,2013-03-10 04:18:00,
2013-03-09 23:23:00,45.7,28.6,30.19,NNE,22,0.0,0.0,51,0.00,CLR,,0.00,WeatherDisplay:10.37,2013-03-10 04:23:00,
2013-03-09 23:28:00,45.5,28.4,30.18,NNE,22,2.3,2.3,51,0.00,CLR,,0.00,WeatherDisplay:10.37,2013-03-10 04:28:00,
2013-03-09 23:33:00,45.5,28.4,30.18,NNE,22,0.0,0.0,51,0.00,CLR,,0.00,WeatherDisplay:10.37,2013-03-10 04:33:00,
2013-03-09 23:38:00,45.5,28.4,30.18,NNE,22,2.4,2.5,51,0.00,CLR,,0.00,WeatherDisplay:10.37,2013-03-10 04:38:00,
2013-03-09 23:43:00,45.7,28.6,30.18,NNE,22,1.1,1.1,51,0.00,CLR,,0.00,WeatherDisplay:10.37,2013-03-10 04:43:00,
2013-03-09 23:48:00,45.7,28.6,30.17,NNE,22,1.7,1.8,51,0.00,CLR,,0.00,WeatherDisplay:10.37,2013-03-10 04:48:00,
2013-03-09 23:53:00,46.0,28.4,30.17,NNE,22,0.0,0.0,50,0.00,CLR,,0.00,WeatherDisplay:10.37,2013-03-10 04:53:00,
2013-03-09 23:58:00,46.0,28.4,30.17,NNE,22,0.0,0.0,50,0.00,CLR,,0.00,WeatherDisplay:10.37,2013-03-10 04:58:00,